Ellensburg, WA

11:18 AM PDT on May 22, 2018 (GMT -0700)
Bowers

Weather History for KELN - November, 2011

Change the Weather History Date:

Friday, November 18, 2011

  Actual Average (KYKM) Record (KYKM)
Temperature  
Mean Temperature 31 °F -  
Max Temperature 39 °F 48 °F 67 °F (2003)
Min Temperature 21 °F 27 °F 8 °F (2014)
Degree Days  
Heating Degree Days 34    
Moisture  
Dew Point 27 °F    
Average Humidity 83    
Maximum Humidity 93    
Minimum Humidity 62    
Precipitation  
Precipitation 0.06 in - - ()
Sea Level Pressure  
Sea Level Pressure 29.58 in    
Wind  
Wind Speed 3 mph (NNW)    
Max Wind Speed 15 mph    
Max Gust Speed -    
Visibility 4 miles    
Events Fog , Snow    
Averages and records for this station are not official NWS values.
T = Trace of Precipitation, MM = Missing Value Source: NWS Daily Summary

Daily Weather History Graph

Daily Weather History Graph

Search for Another Location

Airport or City:

Astronomy

Nov. 18, 2011 Rise Set
Actual Time 7:09 AM PST 4:24 PM PST
Civil Twilight 6:36 AM PST 4:57 PM PST
Nautical Twilight 5:58 AM PST 5:35 PM PST
Astronomical Twilight 5:22 AM PST 6:11 PM PST
Moon No Moon Rise 12:39 PM PST (11/18)
Length of Visible Light 10h 21m
Length of Day
9h 14m
Waning Gibbous, 48% of the Moon is Illuminated
Nov 18
Waning Gibbous
Nov 24
New
Dec 2
First Quarter
Dec 10
Full
Dec 17
Last Quarter

Hourly Weather History & Observations

Time (PST) Temp. Windchill Dew Point Humidity Pressure Visibility Wind Dir Wind Speed Gust Speed Precip Events Conditions
12:22 AM 32.0 °F 27.5 °F 28.4 °F 87% 29.55 in 3.0 mi NNW 4.6 mph - 0.01 in Snow Light Snow
12:35 AM 33.8 °F - 28.4 °F 81% 29.55 in 1.8 mi Calm Calm - 0.01 in Snow Light Snow
12:42 AM 33.8 °F - 30.2 °F 87% 29.55 in 0.8 mi Calm Calm - 0.02 in Snow Light Snow
12:53 AM 33.1 °F 30.0 °F 30.0 °F 89% 29.58 in 0.8 mi North 3.5 mph - 0.03 in Snow Light Snow
1:06 AM 33.8 °F 29.6 °F 30.2 °F 87% 29.54 in 1.0 mi NE 4.6 mph - 0.01 in Snow Light Snow
1:18 AM 33.8 °F - 30.2 °F 87% 29.54 in 1.8 mi Calm Calm - 0.02 in Snow Light Snow
1:26 AM 33.8 °F - 30.2 °F 87% 29.54 in 1.8 mi Calm Calm - 0.02 in Snow Light Snow
1:29 AM 33.8 °F 30.8 °F 28.4 °F 81% 29.54 in 2.0 mi West 3.5 mph - 0.02 in Snow Light Snow
1:37 AM 33.8 °F 29.6 °F 28.4 °F 81% 29.54 in 3.0 mi West 4.6 mph - 0.02 in Snow Light Snow
1:53 AM 33.1 °F 30.0 °F 30.0 °F 89% 29.57 in 2.5 mi West 3.5 mph - 0.02 in   Overcast
2:10 AM 33.8 °F 29.6 °F 30.2 °F 87% 29.54 in 4.0 mi NNW 4.6 mph - N/A   Overcast
2:19 AM 33.8 °F 28.6 °F 30.2 °F 87% 29.54 in 6.0 mi North 5.8 mph - N/A   Overcast
2:49 AM 33.8 °F - 30.2 °F 87% 29.53 in 2.5 mi Calm Calm - 0.00 in Snow Light Snow
2:53 AM 33.1 °F 30.0 °F 30.0 °F 89% 29.56 in 2.5 mi SSE 3.5 mph - 0.00 in Snow Light Snow
3:29 AM 30.2 °F - 28.4 °F 93% 29.52 in 2.5 mi Calm Calm - 0.00 in Snow Light Snow
3:53 AM 32.0 °F - 28.9 °F 88% 29.56 in 1.8 mi Calm Calm - 0.00 in Snow Light Snow
4:06 AM 30.2 °F - 28.4 °F 93% 29.52 in 2.0 mi Calm Calm - 0.00 in Snow Light Snow
4:14 AM 32.0 °F 28.7 °F 28.4 °F 87% 29.51 in 1.2 mi ENE 3.5 mph - 0.01 in Snow Light Snow
4:24 AM 30.2 °F 24.3 °F 28.4 °F 93% 29.51 in 2.0 mi East 5.8 mph - 0.01 in Snow Light Snow
4:33 AM 30.2 °F 26.7 °F 28.4 °F 93% 29.52 in 4.0 mi ESE 3.5 mph - 0.01 in   Overcast
4:45 AM 30.2 °F 26.7 °F 28.4 °F 93% 29.52 in 1.8 mi SE 3.5 mph - 0.01 in   Overcast
4:51 AM 30.2 °F - 28.4 °F 93% 29.52 in 0.8 mi Calm Calm - 0.01 in   Mist
4:53 AM 30.9 °F - 28.0 °F 89% 29.57 in 0.8 mi Calm Calm - 0.01 in   Mist
5:53 AM 32.0 °F - 28.9 °F 88% 29.55 in 0.5 mi Calm Calm - N/A Fog Fog
6:53 AM 30.9 °F - 28.0 °F 89% 29.56 in 0.5 mi Calm Calm - N/A Fog Light Freezing Fog
7:53 AM 30.0 °F - 27.0 °F 88% 29.57 in 0.2 mi Calm Calm - N/A Fog Light Freezing Fog
8:53 AM 30.0 °F - 27.0 °F 88% 29.58 in 0.2 mi Calm Calm - N/A Fog Light Freezing Fog
9:53 AM 30.9 °F - 27.0 °F 85% 29.59 in 0.2 mi Calm Calm - N/A Fog Light Freezing Fog
10:38 AM 32.0 °F - 28.4 °F 87% 29.55 in 1.2 mi Calm Calm - N/A   Overcast
10:53 AM 32.0 °F - 28.0 °F 85% 29.60 in 1.2 mi Calm Calm - N/A   Overcast
11:00 AM 32.0 °F - 28.4 °F 87% 29.55 in 1.0 mi Calm Calm - N/A   Overcast
11:30 AM 33.8 °F - 28.4 °F 81% 29.54 in 3.0 mi Calm Calm - N/A   Haze
11:53 AM 34.0 °F - 28.9 °F 82% 29.58 in 9.0 mi Calm Calm - N/A   Mostly Cloudy
12:10 PM 35.6 °F - 28.4 °F 75% 29.54 in 10.0 mi Calm Calm - N/A   Scattered Clouds
12:53 PM 37.0 °F - 28.9 °F 73% 29.57 in 10.0 mi Calm Calm - N/A   Clear
1:53 PM 39.0 °F 32.3 °F 28.0 °F 65% 29.57 in 10.0 mi WNW 10.4 mph - N/A   Mostly Cloudy
2:53 PM 37.0 °F 28.9 °F 26.1 °F 65% 29.59 in 10.0 mi NW 12.7 mph - N/A   Clear
3:53 PM 37.0 °F 28.1 °F 25.0 °F 62% 29.61 in 10.0 mi NW 15.0 mph - N/A   Clear
4:53 PM 34.0 °F 26.6 °F 24.1 °F 67% 29.64 in 10.0 mi WNW 9.2 mph - N/A   Scattered Clouds
5:53 PM 32.0 °F 23.0 °F 23.0 °F 69% 29.65 in 10.0 mi WNW 11.5 mph - N/A   Clear
6:53 PM 30.0 °F 20.0 °F 23.0 °F 75% 29.67 in 10.0 mi NW 12.7 mph - N/A   Clear
7:53 PM 28.0 °F 21.7 °F 21.9 °F 78% 29.69 in 10.0 mi NNW 5.8 mph - N/A   Clear
8:53 PM 23.0 °F - 17.1 °F 78% 29.71 in 10.0 mi Calm Calm - N/A   Clear
9:53 PM 24.1 °F 18.2 °F 18.0 °F 77% 29.72 in 10.0 mi North 4.6 mph - N/A   Clear
10:53 PM 23.0 °F - 18.0 °F 81% 29.73 in 10.0 mi Calm Calm - N/A   Clear
11:53 PM 21.9 °F 14.5 °F 16.0 °F 78% 29.74 in 10.0 mi East 5.8 mph - N/A   Clear